OBJECT D (43761 NORAD) Tracking and Keplerian Element Data

This shows tracking and keplerian element data for the satellite.

Feedback or suggestion? Click here.




ElementValue
Catalog43761
NameOBJECT D
Epoch Orbit663
Epoch Day17.19505424
Epoch Year2019
RAAN90.9255
Inclination97.7658
Eccentricity0.0015848
Argument of Perigee113.8991
Mean Anonmoly246.3891
Mean Motion14.94960478
Decay Rate3.6E-07
L11 43761U 18099D 19017.19505424 .00000036 00000-0 85559-5 0 9992
L22 43761 97.7658 90.9255 0015848 113.8991 246.3891 14.94960478 6633

Live tracking and technical data element details for OBJECT D (NORAD 43761). OBJECT D can be tracked NOW for your location showing map with azimuth and elevation plus other details from your city location.

Track the satellite on the map from your city or location and see movement details for azimuth, elevation, latitude, longitude, range, height, and movement on the map or in text.







IsCatalogInMostPopularTable: catalog: 43761, numindb: 23
Update: records affected: 1



GetName: 43761 OBJECT D

Hit Count: updated at: Fri, 18 Jan 2019 22:08:02 GMT